Location: Archemont
(49.1579°N, 1.7598°E)
Time: 19:06:50
(UTC+00:00)

Spot 1 - Visible Passes

Search period start: 26 May 2024 00:00
Search period end: 05 June 2024 00:00
Orbit: 571 x 766 km, 98.7° (Epoch: 26 May)

Date Brightness Start Highest point End Pass type
(mag) Time Alt. Az. Time Alt. Az. Time Alt. Az.
26 May 6.0 20:17:58 10° ENE 20:19:45 12° E 20:21:35 10° ESE visible
26 May 4.1 21:53:10 10° NNE 21:57:16 73° WNW 22:00:51 14° SSW visible
27 May 5.2 20:48:56 10° NE 20:52:23 25° E 20:55:28 12° SSE visible
27 May 5.4 22:25:44 10° N 22:29:30 35° WNW 22:33:20 10° SW visible
28 May 4.2 21:20:49 10° NNE 21:24:51 52° ESE 21:28:15 15° S visible
28 May 6.4 22:58:40 10° NNW 23:01:35 19° WNW 23:04:34 10° WSW visible
29 May 4.1 21:53:04 10° NNE 21:57:12 75° WNW 22:01:01 13° SSW visible
29 May 7.0 23:32:53 10° NW 23:33:32 10° NW 23:34:12 10° WNW visible
30 May 5.2 20:48:50 10° NE 20:52:18 25° E 20:55:38 11° SSE visible
30 May 5.4 22:25:36 10° N 22:29:25 36° WNW 22:33:22 10° SW visible
31 May 4.3 21:20:41 10° NNE 21:24:46 51° ESE 21:28:23 14° S visible
31 May 6.4 22:58:30 10° NNW 23:01:31 20° WNW 23:04:37 10° WSW visible
01 Jun 4.2 21:52:55 10° NNE 21:57:06 77° WNW 22:01:10 12° SSW visible
01 Jun 6.9 23:32:24 10° NW 23:33:28 11° NW 23:34:33 10° WNW visible
02 Jun 5.3 20:48:41 10° NE 20:52:12 25° E 20:55:45 10° SSE visible
02 Jun 5.4 22:25:26 10° N 22:29:19 38° WNW 22:33:22 10° SW visible
03 Jun 4.3 21:20:31 10° NNE 21:24:40 51° ESE 21:28:31 13° S visible
03 Jun 6.4 22:58:17 10° NNW 23:01:25 21° WNW 23:04:38 10° WSW visible
04 Jun 4.2 21:52:44 10° NNE 21:56:59 79° WNW 22:01:16 11° SSW visible
04 Jun 6.9 23:31:59 10° NW 23:33:22 11° NW 23:34:45 10° WNW visible
